Regional Weather Roundup
Issued by NWS

Home | Current Version | Previous Version | Text Only | Print | Product List | Glossary Off
Versions: 1 2 3 4 5 6 7 8 9 10 11 12 13 14 15 16 17 18 19 20 21 22 23 24 25 26 27 28 29 30 31 32 33 34 35 36 37 38 39 40 41 42 43 44 45 46 47 48 49 50

000
ASUS43 KLSX 291757
RWRMO

WEATHER SUMMARY FOR MISSOURI
NATIONAL WEATHER SERVICE SPRINGFIELD MO
100 PM CDT FRI JUL 29 2016

NOTE: "FAIR" INDICATES FEW OR NO CLOUDS BELOW 12,000 FEET WITH NO
       SIGNIFICANT WEATHER AND/OR OBSTRUCTIONS TO VISIBILITY.
       CURRENT SKY AND/OR WEATHER CONDITIONS ARE NOT AVAILABLE FOR
       CHILLICOTHE AND FARMINGTON.

MOZ001>031-035>038-043-044-053-054-291900-
...NORTHERN AND WESTERN MISSOURI...

CITY           SKY/WX    TMP DP  RH WIND       PRES   REMARKS
KANSAS CTY INT PTSUNNY   82  62  50 N5        30.02S
6HR MIN TEMP:  68; 6HR MAX TEMP:  82;

LEE`S SUMMIT   CLOUDY    82  66  58 VRB6      30.02F
6HR MIN TEMP:  70; 6HR MAX TEMP:  82;

ST JOSEPH      MOSUNNY   81  64  56 MISG      30.02F
6HR MIN TEMP:  68; 6HR MAX TEMP:  81;


$$
MOZ066>068-077>081-088>096-101>105-291900-
...SOUTHWEST MISSOURI...

CITY           SKY/WX    TMP DP  RH WIND       PRES   REMARKS
SPRINGFIELD    MOSUNNY   81  73  76 NW12      29.98F
6HR MIN TEMP:  71; 6HR MAX TEMP:  83; 6HR PCP: TRACE;

JOPLIN         PTSUNNY   83  70  64 NW8       30.00F
6HR MIN TEMP:  68; 6HR MAX TEMP:  85;

BRANSON        CLOUDY    75  72  88 W9        30.04R THUNDER

$$
MOZ032>034-039>042-045>050-055>058-069>072-291900-
...CENTRAL MISSOURI...

CITY           SKY/WX    TMP DP  RH WIND       PRES   REMARKS
COLUMBIA       NOT AVBL
JEFFERSON CITY CLOUDY    79  71  76 SW3       29.98S
6HR MIN TEMP:  71; 6HR MAX TEMP:  80; 6HR PCP:  0.03;

ROLLA          MOSUNNY   82  71  69 W3        29.97F
6HR MIN TEMP:  68; 6HR MAX TEMP:  83; 6HR PCP: TRACE;

SEDALIA        MOSUNNY   82  69  64 N8        30.01F
6HR MIN TEMP:  73; 6HR MAX TEMP:  83;

OSAGE BEACH    TSTM      79  73  83 N3        29.98F

$$
MOZ051-052-059>065-291900-
...EAST CENTRAL MISSOURI...

CITY           SKY/WX    TMP DP  RH WIND       PRES   REMARKS
ST LOUIS INTL  CLOUDY    82  67  60 NW9       29.97S
6HR MIN TEMP:  75; 6HR MAX TEMP:  85;


$$
MOZ072>076-082>087-097>100-106>115-291900-
...SOUTH CENTRAL AND SOUTHEAST MISSOURI...

CITY           SKY/WX    TMP DP  RH WIND       PRES   REMARKS
CAPE GIRARDEAU CLOUDY    82  73  74 CALM      29.95F
6HR MIN TEMP:  72; 6HR MAX TEMP:  82;

POPLAR BLUFF   MOSUNNY   86  76  71 SE6       29.94F HX  96
6HR MIN TEMP:  71; 6HR MAX TEMP:  86;

WEST PLAINS    PTSUNNY   85  70  60 VRB5      29.99F
6HR MIN TEMP:  69; 6HR MAX TEMP:  87;


$$



USA.gov is the U.S. government's official web portal to all federal, state and local government web resources and services.